Weather in Savastepe

Turkey     39°22′58″N   27°39′19″E
temp.,
°C
wind,
m/s
gust,
m/s
humid.,
%
clouds,
%
prec.,
mm/h
press.,
hPa
HPBL,
m
14 may, fri
fri1400:00+14ssw33790 0.0 101137
03:00+13ssw22810 0.0 101113
06:00+12sw22730 0.0 101117
09:00+18sw35530 0.0 1012564
12:00+22sw68420 0.0 10131561
15:00+24sw810400 0.0 10121997
18:00+23wsw56430 0.0 10121542
21:00+16sw34698 0.0 101439
15 may, sat
sat1500:00+13ssw22784 0.0 101515
03:00+13sw2277100 0.0 101411
06:00+12se11790 0.0 101310
09:00+18nne105751 0.0 1014320
12:00+24se343396 0.0 10111487
15:00+26sw3428100 0.0 10102220
18:00+22w3547100 0.0 1009381
21:00+17wsw2354100 0.0 101030
16 may, sun
sun1600:00+15wsw226394 0.0 100914
03:00+13ene2274100 0.1 100815
06:00+12nne1188100 0.5 100811
09:00+16nne116994 0.5 1009367
12:00+21nnw224923 0.0 10081259
15:00+22nw4444100 0.0 10071673
18:00+20nne346113 0.7 1008921
21:00+16nnw11785 0.9 100911
17 may, mon
mon1700:00+14wnw11850 0.0 101011
03:00+12wsw11851 0.0 101010
06:00+12s11860 0.0 101110
09:00+18ne10650 0.0 1012412
12:00+22ne21470 0.0 10121374
15:00+25n23396 0.0 10111975
18:00+25nw334191 0.0 10101502
21:00+18wnw22630 0.0 101211
18 may, tue
tue1800:00+16sw11610 0.0 101311
03:00+15ssw11651 0.0 101211
06:00+14ssw11700 0.0 101311
09:00+21s12500 0.0 1013374
12:00+26ssw33330 0.0 10121297
15:00+29sw45305 0.0 10101965
18:00+27wsw46384 0.0 10101205
21:00+20sw33554 0.0 101131